This is the latest recevied weather packets stored in our database for station/object G4MDP-13. If no packets are shown the sender has not sent any weather packets the latest 1 day(s).
| Time | Temp. | Humidity | Pressure | Rain* | Wind** | Luminosity | Snow |
|---|---|---|---|---|---|---|---|
| 1778051117 | 9.44° C | 75% | 1006.6 hPa | 0 mm | 1.34 m/s, 135° | - | - |
| 1778051057 | 9.44° C | 76% | 1006.6 hPa | 0 mm | 1.34 m/s, 138° | - | - |
| 1778050160 | 9.44° C | 77% | 1006.6 hPa | 0 mm | 1.79 m/s, 123° | - | - |
| 1778050158 | 9.44° C | 77% | 1006.6 hPa | 0 mm | 1.79 m/s, 123° | - | - |
| 1778049317 | 9.44° C | 76% | 1006.4 hPa | 0 mm | 1.79 m/s, 109° | - | - |
| 1778049260 | 9.44° C | 76% | 1006.6 hPa | 0 mm | 1.79 m/s, 112° | - | - |
| 1778049258 | 9.44° C | 76% | 1006.6 hPa | 0 mm | 1.79 m/s, 112° | - | - |
| 1778048358 | 9.44° C | 76% | 1006.4 hPa | 0 mm | 1.34 m/s, 118° | - | - |
| 1778048357 | 9.44° C | 76% | 1006.4 hPa | 0 mm | 1.34 m/s, 118° | - | - |
| 1778047517 | 9.44° C | 78% | 1006.2 hPa | 0 mm | 1.34 m/s, 128° | - | - |
| 1778047458 | 9.44° C | 77% | 1006 hPa | 0 mm | 1.34 m/s, 130° | - | - |
| 1778046558 | 9.44° C | 77% | 1006.2 hPa | 0 mm | 1.79 m/s, 138° | - | - |
| 1778046557 | 9.44° C | 77% | 1006.2 hPa | 0 mm | 1.79 m/s, 138° | - | - |
| 1778045717 | 8.89° C | 80% | 1006.1 hPa | 0 mm | 1.34 m/s, 136° | - | - |
| 1778045658 | 8.89° C | 80% | 1006.1 hPa | 0 mm | 1.79 m/s, 143° | - | - |
| 1778044758 | 8.89° C | 82% | 1006 hPa | 0 mm | 1.79 m/s, 144° | - | - |
| 1778044757 | 8.89° C | 82% | 1006 hPa | 0 mm | 1.79 m/s, 144° | - | - |
| 1778043917 | 8.89° C | 82% | 1006.1 hPa | 0 mm | 2.24 m/s, 151° | - | - |
| 1778043858 | 8.89° C | 82% | 1006 hPa | 0 mm | 2.24 m/s, 150° | - | - |
| 1778042958 | 8.89° C | 81% | 1005.9 hPa | 0 mm | 1.79 m/s, 149° | - | - |
| 1778042957 | 8.89° C | 81% | 1005.9 hPa | 0 mm | 1.79 m/s, 149° | - | - |
| 1778042117 | 9.44° C | 79% | 1006 hPa | 0 mm | 1.79 m/s, 153° | - | - |
| 1778042058 | 9.44° C | 79% | 1005.9 hPa | 0 mm | 1.79 m/s, 152° | - | - |
| 1778041158 | 9.44° C | 79% | 1005.8 hPa | 0 mm | 1.79 m/s, 146° | - | - |
| 1778041157 | 9.44° C | 79% | 1005.8 hPa | 0 mm | 1.79 m/s, 146° | - | - |
* Rain latest hour (hover to see other rain measurements)
** Current wind speed in m/s (hover to see current wind gust speed)